[[{"header":{"parameterUnit":"m.s-1","parameterCategory":1,"la1":30.2991,"la2":30.254,"lo1":-89.0895,"lo2":-89.0444,"dy":0.0017,"dx":0.0017,"nx":28,"ny":28,"refTime":"2023-09-12T09:00:00:Z","depth":0,"parameterNumber":2,"parameterNumberName":"U-component_of_WINDS"},"data":[0,0,0,0,0,0,0,0,0,0,0,0,0,0,0,0,0,0,0,0,0,0,0,0,0,0,0,0,0,0,0,0,0,0,0,0,0,0,0,0,0,0,0,0,0,0,0,0,0,0,0,0,0,0,0,0,0,0,2.6823,2.6824,0,2.6892,2.6893,2.6894,2.6899,2.6899,2.6898,2.6897,2.6969,2.6971,2.6974,0,0,0,0,0,0,0,0,0,0,0,0,0,2.6697,2.6699,2.6823,2.6824,2.6825,2.6892,2.6893,2.6894,2.69,2.6899,2.6898,2.6897,2.6968,2.6971,2.6974,0,0,0,0,0,0,0,0,0,0,0,0,0,2.6758,2.67,2.6823,2.6836,2.6838,2.6892,2.6893,2.6894,2.69,2.6899,2.6898,2.6896,2.6967,2.6971,2.6975,2.7021,0,0,2.6987,2.6988,0,0,0,0,0,0,0,0,2.6754,2.6762,2.6833,2.6835,2.6837,2.6886,2.6875,2.6937,2.69,2.6876,2.6897,2.6896,2.6942,2.6948,2.6964,2.7025,2.7028,2.6987,2.6989,2.6991,2.6992,0,0,0,0,0,0,0,2.675,2.6759,2.6851,2.6834,2.6837,2.6838,2.6846,2.6887,2.6915,2.6878,2.6879,2.6887,2.6943,2.696,2.6965,2.7029,2.6987,2.699,2.6993,2.6994,2.7132,2.7134,0,0,0,0,0,0,2.6743,2.6756,2.6848,2.6853,2.6792,2.6842,2.685,2.6872,2.6914,2.692,2.6888,2.6887,2.6954,2.6961,2.6968,2.7026,2.6991,2.6995,2.6997,2.7131,2.7133,2.7134,0,0,0,0,0,0,2.6741,2.6751,2.6846,2.6804,2.6817,2.6845,2.6869,2.6873,2.689,2.6921,2.6927,2.6899,2.6953,2.6962,2.7008,2.7028,2.6996,2.7,2.7129,2.7131,2.7133,2.7141,0,0,0,0,0,0,2.6737,2.675,2.6768,2.6805,2.6819,2.6884,2.6871,2.6876,2.6897,2.6896,2.6934,2.6939,2.6953,2.7002,2.7012,2.7033,2.7003,2.7128,2.713,2.7133,2.7139,2.7143,2.7147,0,0,0,0,0,2.6732,2.6768,2.6769,2.678,2.6841,2.6885,2.6893,2.6908,2.6898,2.6917,2.6937,2.6938,2.7024,2.7007,2.7018,2.704,2.7127,2.713,2.7132,2.7138,2.7142,2.7146,0,0,0,0,0,0,2.6733,2.6773,2.6775,2.6823,2.6851,2.6886,2.691,2.6913,2.6944,2.6943,2.696,2.6969,2.7014,2.7032,2.7011,2.7088,2.7074,2.708,2.7075,2.7079,2.7083,2.7078,2.7006,0,0,0,0,0,2.6738,2.6771,2.6804,2.6843,2.6857,2.6881,2.6901,2.691,2.694,2.6951,2.6975,2.7004,2.7038,2.706,2.7092,2.7142,2.7151,2.7163,2.7167,2.7169,2.7174,2.7202,2.7208,2.7144,2.7144,2.7144,0,0,2.6751,2.6776,2.6796,2.6844,2.6867,2.69,2.6891,2.6926,2.6951,2.6957,2.7001,2.702,2.7053,2.7101,2.7124,2.7118,2.7193,2.7173,2.7175,2.7178,2.7205,2.7211,2.7217,2.7146,2.7145,2.7145,0,0,2.6789,2.6812,2.6847,2.687,2.6905,2.6921,2.6929,2.6965,2.6977,2.7022,2.7027,2.7057,2.7115,2.7139,2.7158,2.7207,2.7209,2.7217,2.7236,2.7263,2.7268,2.7273,2.729,2.7296,2.7222,2.7222,2.7222,0,2.68,2.685,2.6865,2.6901,2.6922,2.6929,2.6965,2.6987,2.703,2.7045,2.7038,2.711,2.7134,2.7187,2.7199,2.7215,2.7225,2.7213,2.7266,2.7271,2.7276,2.7292,2.7299,2.7222,2.7222,2.7222,2.7222,0,2.6862,2.6896,2.6921,2.6962,2.6986,2.7022,2.7043,2.7066,2.7073,2.709,2.7136,2.7164,2.7203,2.7216,2.7224,2.7271,2.7266,2.7263,2.7249,2.7282,2.7298,2.7305,2.7223,2.7223,2.7223,2.7223,0,0,2.6902,2.6952,2.6961,2.698,2.7019,2.7046,2.7082,2.712,2.7139,2.7169,2.72,2.7249,2.7246,2.7268,2.7279,2.7302,2.7339,2.7296,2.7297,2.7303,2.7394,2.7396,2.7403,2.7341,2.7343,2.7344,2.7391,0,2.6945,2.7009,2.7025,2.708,2.7112,2.7119,2.7151,2.7178,2.7195,2.7225,2.7244,2.7279,2.7272,2.7285,2.7309,2.733,2.7358,2.7327,2.7371,2.7372,2.7362,2.7412,2.7415,2.7458,2.7397,2.7398,2.7399,0,2.7004,2.7035,2.7094,2.7128,2.7143,2.7171,2.7207,2.7236,2.7267,2.7278,2.7303,2.7311,2.7349,2.7334,2.7388,2.7366,2.7385,2.7398,2.74,2.7405,2.7387,2.7418,2.7472,2.7478,2.7409,2.7408,2.7408,0,2.7028,2.7084,2.7127,2.7143,2.7185,2.7204,2.7223,2.7253,2.7275,2.7307,2.7321,2.7357,2.7377,2.7405,2.7422,2.741,2.7474,2.7461,2.7485,2.7484,2.7497,2.7496,2.7555,2.751,2.751,2.751,2.751,0,2.7074,2.711,2.7138,2.7164,2.7204,2.7221,2.7261,2.7279,2.7306,2.7337,2.7345,2.7373,2.7395,2.7427,2.7441,2.7483,2.7492,2.7502,2.7505,2.7501,2.7499,2.7513,2.7511,2.7512,2.7511,2.7511,2.7511,0,2.7107,2.7128,2.7174,2.721,2.722,2.7248,2.7279,2.7305,2.7322,2.736,2.737,2.7397,2.7434,2.7455,2.7502,2.7511,2.7558,2.756,2.7548,2.7549,2.7571,2.7569,2.7641,2.7652,2.7599,2.76,2.76,0,2.7135,2.7163,2.7202,2.7222,2.7241,2.7274,2.7297,2.7315,2.7338,2.7376,2.7398,2.7436,2.7467,2.7526,2.755,2.7586,2.7589,2.7612,2.7594,2.7589,2.7589,2.7587,2.759,2.7615,2.7615,2.7616,2.7616,0,2.7183,2.7192,2.7224,2.7259,2.7286,2.7315,2.7343,2.736,2.7383,2.7409,2.7447,2.7471,2.7519,2.7557,2.7595,2.7614,2.7619,2.7621,2.7629,2.7624,2.7616,2.7621,2.7556,2.7619,2.7619,2.7619,2.7619,2.7618,2.7215,2.724,2.7271,2.7306,2.733,2.7356,2.7382,2.7403,2.7435,2.7475,2.7484,2.7525,2.7556,2.7608,2.7628,2.766,2.7656,2.7667,2.7669,2.7672,2.7673,2.7611,2.7667,2.7667,2.7667,2.7667,2.7667,0,2.7263,2.7284,2.7316,2.7356,2.7384,2.7386,2.7418,2.7441,2.7476,2.7505,2.7536,2.758,2.7616,2.7644,2.7681,2.7701,2.7705,2.7711,2.7709,2.7714,2.7674,2.7664,2.7707,2.7707,2.7707,2.7707,2.7707,2.7707,2.7291,2.7333,2.7346,2.74,2.7421,2.746,2.7478,2.7503,2.7526,2.7575,2.7605,2.7623,2.7651,2.7691,2.7725,2.7732,2.7745,2.7751,2.7758,2.7721,2.7716,2.7712,2.7703,2.7754,2.7754,2.7795,2.7795,2.7796]},{"header":{"parameterUnit":"m.s-1","parameterCategory":1,"la1":30.2991,"la2":30.254,"lo1":-89.0895,"lo2":-89.0444,"dy":0.0017,"dx":0.0017,"nx":28,"ny":28,"refTime":"2023-09-12T09:00:00:Z","depth":0,"parameterNumber":3,"parameterNumberName":"V-component_of_WINDS"},"data":[0,0,0,0,0,0,0,0,0,0,0,0,0,0,0,0,0,0,0,0,0,0,0,0,0,0,0,0,0,0,0,0,0,0,0,0,0,0,0,0,0,0,0,0,0,0,0,0,0,0,0,0,0,0,0,0,0,0,0.1115,0.1114,0,0.107,0.1069,0.1069,0.106,0.1061,0.1061,0.1062,0.1014,0.1012,0.1011,0,0,0,0,0,0,0,0,0,0,0,0,0,0.119,0.1189,0.1115,0.1114,0.1114,0.107,0.1069,0.1069,0.106,0.1061,0.1061,0.1062,0.1014,0.1012,0.101,0,0,0,0,0,0,0,0,0,0,0,0,0,0.1153,0.1189,0.1115,0.1104,0.1103,0.107,0.1069,0.1069,0.106,0.1061,0.1061,0.1062,0.1015,0.1013,0.101,0.0984,0,0,0.1003,0.1002,0,0,0,0,0,0,0,0,0.1155,0.115,0.1106,0.1105,0.1103,0.1071,0.1078,0.104,0.106,0.1076,0.1062,0.1062,0.1032,0.1029,0.1019,0.0982,0.098,0.1003,0.1001,0.1,0.0999,0,0,0,0,0,0,0,0.1157,0.1152,0.1097,0.1106,0.1104,0.1101,0.1096,0.1071,0.1052,0.1075,0.1074,0.1069,0.1032,0.1021,0.1018,0.0979,0.1003,0.1,0.0999,0.0998,0.0917,0.0916,0,0,0,0,0,0,0.1162,0.1154,0.1098,0.1096,0.1131,0.1099,0.1094,0.1081,0.1052,0.1048,0.1069,0.1069,0.1025,0.1021,0.1016,0.0982,0.1,0.0998,0.0996,0.0917,0.0917,0.0916,0,0,0,0,0,0,0.1164,0.1157,0.11,0.1125,0.1117,0.1097,0.1083,0.108,0.107,0.1047,0.1044,0.1062,0.1025,0.1019,0.0992,0.0981,0.0997,0.0995,0.0918,0.0917,0.0916,0.0916,0,0,0,0,0,0,0.1166,0.1158,0.1149,0.1125,0.1116,0.1078,0.1082,0.1079,0.1066,0.1065,0.104,0.1036,0.1025,0.0996,0.0989,0.0978,0.0993,0.0919,0.0918,0.0916,0.0917,0.0915,0.0913,0,0,0,0,0,0.1169,0.1151,0.1148,0.1142,0.1104,0.1077,0.1072,0.1061,0.1065,0.1055,0.104,0.1037,0.0983,0.0993,0.0986,0.0973,0.092,0.0918,0.0917,0.0917,0.0915,0.0913,0,0,0,0,0,0,0.1174,0.1147,0.1145,0.1118,0.11,0.1076,0.1063,0.1059,0.1039,0.1039,0.1025,0.1019,0.0992,0.098,0.0991,0.0945,0.0951,0.0948,0.0954,0.0952,0.095,0.0953,0.0991,0,0,0,0,0,0.1172,0.1153,0.1131,0.1109,0.11,0.1083,0.1071,0.1064,0.1044,0.1036,0.102,0.1,0.0979,0.0965,0.0944,0.0915,0.0908,0.0902,0.0901,0.0899,0.0897,0.0878,0.0875,0.091,0.0911,0.0911,0,0,0.1168,0.1151,0.114,0.111,0.1095,0.1075,0.1077,0.1056,0.104,0.1033,0.1006,0.0993,0.097,0.0941,0.0928,0.093,0.0885,0.0897,0.0896,0.0894,0.0876,0.0873,0.087,0.0909,0.091,0.091,0,0,0.1149,0.1135,0.1115,0.11,0.1077,0.1066,0.1061,0.1037,0.1028,0.1001,0.0994,0.0975,0.0939,0.0922,0.0909,0.0883,0.0878,0.0876,0.0867,0.0849,0.0847,0.0844,0.0833,0.0829,0.0874,0.0874,0.0874,0,0.1147,0.1117,0.1105,0.1084,0.107,0.1063,0.1041,0.1027,0.0999,0.0989,0.0992,0.0945,0.0929,0.0895,0.0889,0.0879,0.0872,0.0879,0.0848,0.0845,0.0843,0.0832,0.0828,0.0874,0.0874,0.0874,0.0874,0,0.1114,0.1093,0.1079,0.1052,0.1037,0.1015,0.1,0.0985,0.0979,0.0966,0.0937,0.0918,0.0892,0.0884,0.0877,0.0848,0.085,0.0851,0.0857,0.0839,0.0829,0.0825,0.0873,0.0873,0.0873,0.0873,0,0,0.1098,0.1063,0.1058,0.1045,0.1019,0.1002,0.098,0.0955,0.0942,0.0923,0.0902,0.0871,0.0871,0.0856,0.0847,0.0832,0.081,0.0834,0.0833,0.0829,0.0775,0.0774,0.077,0.0807,0.0807,0.0806,0.0777,0,0.1075,0.1036,0.1024,0.0991,0.097,0.0962,0.0942,0.0924,0.0911,0.0891,0.0877,0.0854,0.0857,0.0847,0.0832,0.0816,0.0799,0.0818,0.0787,0.0786,0.0792,0.0765,0.0764,0.0737,0.0773,0.0772,0.0771,0,0.1044,0.1023,0.0988,0.0963,0.0954,0.0936,0.0912,0.0893,0.0871,0.0863,0.0845,0.0838,0.0812,0.082,0.0784,0.0797,0.0784,0.0774,0.0773,0.0768,0.0777,0.0758,0.0728,0.0724,0.0765,0.0766,0.0766,0,0.1034,0.0997,0.0971,0.096,0.0931,0.0918,0.0905,0.0884,0.0869,0.0847,0.0837,0.0812,0.0798,0.0779,0.0764,0.0771,0.0729,0.0735,0.072,0.072,0.0711,0.0711,0.0677,0.0704,0.0704,0.0704,0.0704,0,0.1009,0.0988,0.0966,0.095,0.0924,0.0911,0.0886,0.0872,0.0852,0.0832,0.0824,0.0805,0.0787,0.0765,0.0754,0.0725,0.0719,0.071,0.0707,0.0711,0.0711,0.0701,0.0702,0.0703,0.0703,0.0704,0.0704,0,0.0994,0.0979,0.0949,0.0923,0.0916,0.0899,0.0876,0.0859,0.0846,0.082,0.0814,0.0793,0.0766,0.075,0.0717,0.0709,0.0676,0.0675,0.0684,0.0682,0.0667,0.0668,0.0624,0.0616,0.065,0.0649,0.0649,0,0.0979,0.0962,0.0934,0.092,0.0907,0.0885,0.0869,0.0855,0.0839,0.0811,0.0797,0.077,0.0748,0.0706,0.0687,0.0661,0.0658,0.0644,0.0654,0.0657,0.0656,0.0657,0.0654,0.0642,0.0642,0.0642,0.0642,0,0.0953,0.0946,0.0925,0.09,0.0882,0.0862,0.0842,0.083,0.0812,0.0794,0.0767,0.075,0.0716,0.0689,0.0661,0.0646,0.064,0.0639,0.0633,0.0636,0.0641,0.0637,0.0678,0.064,0.064,0.064,0.064,0.064,0.0936,0.092,0.0898,0.0873,0.0857,0.0838,0.082,0.0804,0.0782,0.0753,0.0745,0.0717,0.0693,0.0655,0.064,0.0616,0.0618,0.0611,0.0609,0.0607,0.0606,0.0646,0.0611,0.0611,0.0611,0.0611,0.0611,0,0.0909,0.0894,0.0872,0.0843,0.0824,0.0821,0.0798,0.0781,0.0757,0.0735,0.0713,0.0682,0.0655,0.0634,0.0606,0.0591,0.0587,0.0584,0.0584,0.0581,0.0607,0.0613,0.0587,0.0587,0.0587,0.0587,0.0587,0.0587,0.0892,0.0864,0.0854,0.0817,0.0802,0.0774,0.0761,0.0743,0.0725,0.069,0.0668,0.0655,0.0633,0.0603,0.0578,0.0572,0.0562,0.0558,0.0552,0.0576,0.0579,0.0582,0.0588,0.0557,0.0557,0.0528,0.0528,0.0527]}]]